FW2795 Weather Reports


time (UTC)temp
C
wind
direction
speed
KPH
gust
KPH
rain 1hr
cm
rain 24hr
cm
rain mn
cm
humidity
%
barometer
mb
20260506051255 8 19 1.6 3.2 0.00 0.00 0.00 81 1013.5
20260506050755 8 6 0.0 3.2 0.00 0.00 0.00 81 1013.6
20260506050325 8 9 3.2 6.4 0.00 0.00 0.00 81 1013.5
20260506044803 8 32 1.6 3.2 0.00 0.00 0.00 80 1013.4
20260506044318 8 46 1.6 3.2 0.00 0.00 0.00 80 1013.4
20260506043807 8 58 3.2 11.3 0.00 0.00 0.00 80 1013.4
20260506043307 8 70 3.2 6.4 0.00 0.00 0.00 80 1013.5
20260506042807 8 76 3.2 4.8 0.00 0.00 0.00 80 1013.5
20260506042311 8 52 3.2 14.5 0.00 0.00 0.00 80 1013.4
20260506041811 8 35 4.8 11.3 0.00 0.00 0.00 80 1013.4
20260506041300 8 21 3.2 4.8 0.00 0.00 0.00 80 1013.3
20260506040800 8 358 3.2 4.8 0.00 0.00 0.00 81 1013.3
20260506040314 8 6 3.2 6.4 0.00 0.00 0.00 80 1013.4
20260506035759 9 353 4.8 12.9 0.00 0.00 0.00 80 1013.4
20260506035259 9 343 1.6 3.2 0.00 0.00 0.00 81 1013.3
20260506034758 9 360 1.6 3.2 0.00 0.00 0.00 81 1013.5
20260506034258 9 9 1.6 8.0 0.00 0.00 0.00 81 1013.3
20260506033812 9 4 4.8 8.0 0.00 0.00 0.00 81 1013.3
20260506033302 9 54 4.8 6.4 0.00 0.00 0.00 81 1013.3
20260506032802 9 65 1.6 3.2 0.00 0.00 0.00 81 1013.3
20260506032305 9 32 1.6 4.8 0.00 0.00 0.00 82 1013.4
20260506031801 9 26 1.6 3.2 0.00 0.00 0.00 82 1013.6
20260506031301 9 21 1.6 3.2 0.00 0.00 0.00 82 1013.4
20260506030800 9 8 1.6 3.2 0.00 0.00 0.00 82 1013.5
20260506030315 9 17 3.2 3.2 0.00 0.00 0.00 82 1013.4
20260506025759 9 41 0.0 1.6 0.00 0.00 0.00 82 1013.4
20260506025259 9 45 1.6 4.8 0.00 0.00 0.00 82 1013.4
20260506024758 10 45 1.6 3.2 0.00 0.00 0.00 81 1013.3
20260506024313 10 38 3.2 3.2 0.00 0.00 0.00 81 1013.5
20260506023812 10 54 3.2 6.4 0.00 0.00 0.00 81 1013.4
20260506023317 10 59 4.8 11.3 0.00 0.00 0.00 81 1013.4
20260506022806 10 88 1.6 3.2 0.00 0.00 0.00 81 1013.4
20260506022306 10 68 1.6 3.2 0.00 0.00 0.00 80 1013.5
20260506021806 10 56 1.6 3.2 0.00 0.00 0.00 81 1013.5
20260506021305 10 40 1.6 3.2 0.00 0.00 0.00 81 1013.4
20260506020754 10 23 0.0 3.2 0.00 0.00 0.00 81 1013.5
20260506020309 10 45 1.6 3.2 0.00 0.00 0.00 82 1013.6
20260506015753 10 40 0.0 1.6 0.00 0.00 0.00 82 1013.6
20260506015253 10 38 3.2 8.0 0.00 0.00 0.00 82 1013.6
20260506014807 10 55 3.2 4.8 0.00 0.00 0.00 82 1013.5
20260506014307 10 73 0.0 1.6 0.00 0.00 0.00 82 1013.5
20260506013807 10 71 6.4 11.3 0.00 0.00 0.00 82 1013.4
20260506013306 10 310 3.2 6.4 0.00 0.00 0.00 82 1013.5
20260506012805 10 279 1.6 3.2 0.00 0.00 0.00 82 1013.5
20260506012308 10 266 3.2 6.4 0.00 0.00 0.00 82 1013.6
20260506011805 10 93 3.2 4.8 0.00 0.00 0.00 82 1013.5
20260506011254 10 52 1.6 4.8 0.00 0.00 0.00 81 1013.6
20260506010754 10 58 0.0 1.6 0.00 0.00 0.00 81 1013.7
20260506010253 10 58 3.2 6.4 0.00 0.00 0.00 81 1013.5
20260506005753 10 65 1.6 3.2 0.00 0.00 0.00 81 1013.7
20260506004753 10 58 1.6 3.2 0.00 0.00 0.00 80 1013.4
20260506004252 10 66 1.6 3.2 0.00 0.00 0.00 79 1013.5
20260506003752 10 48 0.0 1.6 0.00 0.00 0.00 79 1013.7
20260506002806 10 39 0.0 1.6 0.00 0.00 0.00 78 1013.6
20260506002256 10 45 0.0 1.6 0.00 0.00 0.00 78 1013.8
20260506001756 10 45 1.6 3.2 0.00 0.00 0.00 77 1013.5
20260506000755 10 46 6.4 12.9 0.00 0.00 0.00 76 1013.7
20260506000255 10 67 3.2 9.7 0.00 0.00 0.00 76 1013.6
20260505235755 11 58 3.2 6.4 0.00 0.00 0.00 75 1013.9
20260505234759 11 44 6.4 8.0 0.00 0.00 0.00 73 1013.7
20260505234249 11 43 6.4 16.1 0.00 0.00 0.00 72 1013.7
20260505233749 11 14 3.2 6.4 0.00 0.00 0.00 72 1013.6
20260505232803 11 39 3.2 6.4 0.00 0.00 0.00 71 1013.7
20260505232252 11 41 6.4 12.9 0.00 0.00 0.00 71 1013.4
20260505231752 11 55 4.8 6.4 0.00 0.00 0.00 71 1013.6
20260505230752 11 45 6.4 6.4 0.00 0.00 0.00 71 1013.7
20260505230251 11 29 4.8 6.4 0.00 0.00 0.00 71 1013.8
20260505225751 11 44 3.2 6.4 0.00 0.00 0.00 71 1013.7
20260505224806 11 58 4.8 6.4 0.00 0.00 0.00 71 1013.6
20260505224250 11 89 3.2 4.8 0.00 0.00 0.00 71 1013.6
20260505223750 12 86 6.4 17.7 0.00 0.00 0.00 70 1013.6
20260505222804 12 78 3.2 8.0 0.00 0.00 0.00 69 1013.6
20260505222249 12 85 6.4 11.3 0.00 0.00 0.00 69 1013.6
20260505221749 12 79 6.4 8.0 0.00 0.00 0.00 69 1013.5
20260505220804 12 12 3.2 6.4 0.00 0.00 0.00 69 1013.6
20260505220303 12 28 3.2 6.4 0.00 0.00 0.00 69 1013.6
20260505215753 12 25 3.2 6.4 0.00 0.00 0.00 68 1013.4
20260505214752 12 38 3.2 6.4 0.00 0.00 0.00 68 1013.3
20260505214252 12 51 1.6 4.8 0.00 0.00 0.00 68 1013.5
20260505213751 12 55 6.4 11.3 0.00 0.00 0.00 69 1013.4
20260505212806 13 103 3.2 8.0 0.00 0.00 0.00 70 1013.3
20260505212255 13 49 3.2 4.8 0.00 0.00 0.00 70 1013.4
20260505211755 13 73 1.6 3.2 0.00 0.00 0.00 70 1013.1
20260505210755 13 52 1.6 3.2 0.00 0.00 0.00 70 1013.2
20260505210252 13 61 3.2 4.8 0.00 0.00 0.00 71 1013.2
20260505205752 13 34 3.2 4.8 0.00 0.00 0.00 70 1013.2
20260505204752 13 69 3.2 6.4 0.00 0.00 0.00 70 1013.2
20260505204251 13 50 1.6 3.2 0.00 0.00 0.00 70 1013.1
20260505203751 13 64 3.2 3.2 0.00 0.00 0.00 69 1012.9
20260505202805 13 77 3.2 6.4 0.00 0.00 0.00 68 1012.9
20260505202250 13 92 4.8 8.0 0.00 0.00 0.00 67 1013.1
20260505201749 13 49 0.0 3.2 0.00 0.00 0.00 66 1013.0
20260505200804 13 49 3.2 6.4 0.00 0.00 0.00 66 1012.8
20260505200304 13 45 4.8 9.7 0.00 0.00 0.00 66 1013.0
20260505195753 13 232 1.6 4.8 0.00 0.00 0.00 65 1013.0
20260505194753 13 298 1.6 3.2 0.00 0.00 0.00 65 1012.8
20260505194252 13 332 1.6 3.2 0.00 0.00 0.00 65 1012.7
20260505193752 13 360 3.2 4.8 0.00 0.00 0.00 65 1012.6
20260505192807 13 270 0.0 3.2 0.00 0.00 0.00 63 1012.5
20260505192256 14 253 0.0 1.6 0.00 0.00 0.00 63 1012.5
20260505191756 14 323 0.0 1.6 0.00 0.00 0.00 63 1012.5
20260505190755 14 321 1.6 3.2 0.00 0.00 0.00 62 1012.5
20260505190255 14 347 0.0 3.2 0.00 0.00 0.00 62 1012.4
20260505185810 14 354 1.6 3.2 0.00 0.00 0.00 62 1012.3
20260505184814 15 105 3.2 6.4 0.00 0.00 0.00 61 1012.3
20260505184249 15 130 0.0 1.6 0.00 0.00 0.00 60 1012.2
20260505183748 15 130 3.2 4.8 0.00 0.00 0.00 60 1012.6
20260505182803 15 238 0.0 3.2 0.00 0.00 0.00 60 1012.3
20260505182305 15 238 3.2 6.4 0.00 0.00 0.00 60 1012.1
20260505181752 16 285 3.2 6.4 0.00 0.00 0.00 60 1012.2
20260505180806 15 298 1.6 3.2 0.00 0.00 0.00 60 1012.3
20260505180250 15 360 1.6 3.2 0.00 0.00 0.00 61 1012.4
20260505175749 15 18 0.0 1.6 0.00 0.00 0.00 61 1012.3
20260505174804 15 346 3.2 6.4 0.00 0.00 0.00 60 1012.1
20260505174304 15 328 0.0 1.6 0.00 0.00 0.00 61 1012.2
20260505173753 15 332 3.2 4.8 0.00 0.00 0.00 60 1012.3
20260505172753 15 284 3.2 6.4 0.00 0.00 0.00 60 1012.5
20260505172252 15 358 0.0 3.2 0.00 0.00 0.00 60 1012.3
20260505171752 15 358 1.6 3.2 0.00 0.00 0.00 60 1012.2
20260505170807 15 184 0.0 3.2 0.00 0.00 0.00 59 1012.3
20260505170256 15 184 1.6 3.2 0.00 0.00 0.00 60 1012.3
20260505165756 15 157 1.6 3.2 0.00 0.00 0.00 59 1012.2
20260505164756 15 180 1.6 4.8 0.00 0.00 0.00 60 1012.2
20260505164255 16 184 3.2 6.4 0.00 0.00 0.00 60 1012.3
20260505163755 15 315 0.0 3.2 0.00 0.00 0.00 60 1012.4
20260505162754 16 322 0.0 1.6 0.00 0.00 0.00 60 1012.2
20260505162253 16 322 0.0 1.6 0.00 0.00 0.00 60 1012.4
20260505161753 16 330 1.6 3.2 0.00 0.00 0.00 59 1012.3
20260505160753 16 350 1.6 4.8 0.00 0.00 0.00 56 1012.5
20260505160253 16 346 1.6 3.2 0.00 0.00 0.00 55 1012.3
20260505152750 16 56 1.6 4.8 0.00 0.00 0.00 55 1012.4
20260505152250 17 18 3.2 4.8 0.00 0.00 0.00 55 1012.5
20260505151804 16 352 1.6 6.4 0.00 0.00 0.00 57 1012.4
20260505150754 16 17 1.6 3.2 0.00 0.00 0.00 56 1012.5
20260505140300 16 4 1.6 3.2 0.00 0.00 0.00 60 1012.7
20260505124806 17 50 3.2 6.4 0.00 0.00 0.00 53 1013.0
20260505124250 17 278 1.6 3.2 0.00 0.00 0.00 52 1013.0
20260505123750 18 271 3.2 4.8 0.00 0.00 0.00 52 1012.8
20260505122804 18 332 3.2 6.4 0.00 0.00 0.00 52 1013.0
20260505122249 18 309 6.4 11.3 0.00 0.00 0.00 53 1013.0
20260505121749 18 308 4.8 6.4 0.00 0.00 0.00 53 1013.0
20260505120803 17 357 6.4 8.0 0.00 0.00 0.00 52 1013.0
20260505120303 17 355 1.6 3.2 0.00 0.00 0.00 54 1013.1
20260505115803 17 22 3.2 6.4 0.00 0.00 0.00 55 1013.1
20260505114802 16 68 1.6 3.2 0.00 0.00 0.00 59 1013.1
20260505114251 16 71 3.2 6.4 0.00 0.00 0.00 59 1013.2
20260505113751 16 87 1.6 3.2 0.00 0.00 0.00 60 1013.0
20260505112751 16 74 4.8 11.3 0.00 0.00 0.00 56 1013.3
20260505112251 17 62 8.0 12.9 0.00 0.00 0.00 55 1013.3
20260505111805 17 108 0.0 3.2 0.00 0.00 0.00 56 1013.2
20260505110755 17 6 1.6 3.2 0.00 0.00 0.00 58 1013.3
20260505110254 17 33 1.6 3.2 0.00 0.00 0.00 59 1013.3
20260505101756 16 80 1.6 3.2 0.00 0.00 0.00 62 1013.8
20260505101256 16 68 0.0 1.6 0.00 0.00 0.00 63 1013.8
20260505100810 16 67 3.2 6.4 0.00 0.00 0.00 62 1013.6
20260505100310 16 92 3.2 6.4 0.00 0.00 0.00 67 1013.6
20260505095810 15 53 3.2 3.2 0.00 0.00 0.00 71 1013.5
20260505095309 14 358 3.2 3.2 0.00 0.00 0.00 72 1013.6
20260505094809 14 340 1.6 4.8 0.00 0.00 0.00 72 1013.8
20260505094308 14 317 1.6 4.8 0.00 0.00 0.00 72 1013.8
20260505093808 14 3 0.0 3.2 0.00 0.00 0.00 72 1013.8
20260505093258 14 27 0.0 3.2 0.00 0.00 0.00 71 1013.8
20260505092757 15 39 3.2 4.8 0.00 0.00 0.00 69 1013.8
20260505092312 15 91 1.6 4.8 0.00 0.00 0.00 69 1013.7
20260505091756 15 92 1.6 3.2 0.00 0.00 0.00 69 1013.7
20260505091256 15 100 3.2 6.4 0.00 0.00 0.00 68 1013.9
20260505090756 15 144 4.8 9.7 0.00 0.00 0.00 66 1013.8
20260505090310 15 194 3.2 6.4 0.00 0.00 0.00 67 1013.9
20260505085810 15 355 1.6 3.2 0.00 0.00 0.00 69 1013.8
20260505085309 15 342 3.2 4.8 0.00 0.00 0.00 68 1013.9
20260505084809 15 314 1.6 3.2 0.00 0.00 0.00 68 1013.9
20260505084308 15 311 3.2 4.8 0.00 0.00 0.00 70 1014.0
20260505083808 15 349 3.2 4.8 0.00 0.00 0.00 72 1014.0
20260505083308 14 68 0.0 3.2 0.00 0.00 0.00 71 1013.9
20260505082757 14 62 3.2 3.2 0.00 0.00 0.00 70 1014.0
20260505082311 15 105 1.6 3.2 0.00 0.00 0.00 67 1013.9
20260505081756 16 99 3.2 4.8 0.00 0.00 0.00 66 1014.1
20260505081256 16 81 1.6 4.8 0.00 0.00 0.00 70 1014.0
20260505080810 15 79 6.4 8.0 0.00 0.00 0.00 72 1014.0
20260505080315 15 22 1.6 3.2 0.00 0.00 0.00 76 1014.1
20260505075800 13 25 1.6 4.8 0.00 0.00 0.00 78 1013.9
20260505075259 13 352 1.6 3.2 0.00 0.00 0.00 78 1014.1
20260505074759 13 342 0.0 1.6 0.00 0.00 0.00 81 1014.2
20260505074314 13 342 0.0 3.2 0.00 0.00 0.00 82 1014.1
20260505073818 13 347 3.2 6.4 0.00 0.00 0.00 83 1014.3
20260505073308 12 322 3.2 8.0 0.00 0.00 0.00 84 1014.1
20260505072757 12 325 3.2 6.4 0.00 0.00 0.00 85 1014.1
20260505072312 12 333 3.2 6.4 0.00 0.00 0.00 85 1014.2
20260505071756 12 3 0.0 1.6 0.00 0.00 0.00 85 1014.1
20260505071255 11 12 3.2 4.8 0.00 0.00 0.00 87 1014.0
20260505070755 11 338 0.0 3.2 0.00 0.00 0.00 88 1014.2
20260505070309 11 338 3.2 3.2 0.00 0.00 0.00 89 1014.1
20260505065809 11 359 1.6 3.2 0.00 0.00 0.00 89 1014.0
20260505065309 11 10 3.2 4.8 0.00 0.00 0.00 89 1014.2
20260505064808 11 359 3.2 4.8 0.00 0.00 0.00 90 1014.2
20260505064308 11 241 3.2 4.8 0.00 0.00 0.00 90 1014.2
20260505063808 11 285 0.0 1.6 0.00 0.00 0.00 90 1014.1
20260505063307 11 291 0.0 0.0 0.00 0.00 0.00 91 1014.1
20260505062807 11 293 1.6 3.2 0.00 0.00 0.00 91 1014.2
20260505062306 11 287 3.2 3.2 0.00 0.00 0.00 91 1014.1
20260505061806 11 317 1.6 3.2 0.00 0.00 0.00 92 1014.1
20260505061306 10 328 3.2 6.4 0.00 0.00 0.00 92 1014.0
20260505060806 10 337 1.6 3.2 0.00 0.00 0.00 92 1014.2
20260505060305 10 328 1.6 3.2 0.00 0.00 0.00 92 1014.1
20260505055805 10 334 1.6 3.2 0.00 0.00 0.00 92 1014.1
20260505055304 10 351 3.2 4.8 0.00 0.00 0.00 92 1014.2
20260505054804 10 315 0.0 3.2 0.00 0.00 0.00 92 1013.9
20260505054304 10 315 1.6 3.2 0.00 0.00 0.00 92 1014.1
20260505053804 10 180 0.0 1.6 0.00 0.00 0.00 92 1014.1
20260505053318 10 180 0.0 0.0 0.00 0.00 0.00 92 1013.9
20260505052808 10 180 0.0 1.6 0.00 0.00 0.00 92 1014.1
20260505052308 10 180 0.0 0.0 0.00 0.00 0.00 92 1014.0